Skip to main content.
NOAA NWS Hourly Roundups by Site

NOAA NWS Hourly Roundups by Site

Regional Weather Roundup for Omaha, NE

To Select Another Site Choose from List

Select Site:  

492
ASUS43 KOAX 210910
RWRNE

WEATHER ROUNDUP FOR NEBRASKA
NATIONAL WEATHER SERVICE OMAHA NE
400 AM CDT SUN JUL 21 2019

NOTES: SATELLITE DATA IS BEING USED TO AUGMENT CLOUD COVER ABOVE
       12000 FEET.
       "FAIR" INDICATES FEW OR NO CLOUDS BELOW 12,000 FEET WITH NO
       SIGNIFICANT WEATHER AND/OR OBSTRUCTIONS TO VISIBILITY.


NEZ001>004-019>022-054>056-211000-
NEBRASKA PANHANDLE

CITY           SKY/WX    TMP DP  RH WIND       PRES   REMARKS
SCOTTSBLUFF    FAIR      64  61  90 S8        30.04R
ALLIANCE       FAIR      64  59  83 SE15      30.04F
CHADRON        FAIR      65  58  78 SE9       30.02F
GORDON         FAIR      63  60  90 E7        30.07R
KIMBALL        MOCLDY    64  60  87 E14       30.12R
SIDNEY         CLOUDY    64  58  80 E14G22    30.08F
$$

NEZ057>060-069>072-079>082-211000-
SOUTHWEST NEBRASKA

CITY           SKY/WX    TMP DP  RH WIND       PRES   REMARKS
NORTH PLATTE   RAIN      66  63  90 NW18G25   30.07F
IMPERIAL       LGT RAIN  63  61  93 NE10      30.02F
LEXINGTON      TSTM      63  63 100 N14G36    30.09R VSB 3/4
MCCOOK         LGT RAIN  66  65  96 NW13      29.92F
OGALLALA       CLOUDY    66  64  94 NE16      30.06F
$$

NEZ005>010-023>029-035>040-094-211000-
NORTH CENTRAL NEBRASKA

CITY           SKY/WX    TMP DP  RH WIND       PRES   REMARKS
VALENTINE      CLOUDY    66  60  81 E5        30.06S
AINSWORTH      CLOUDY    64  64 100 CALM      30.06R
BROKEN BOW     LGT RAIN  68  65  90 SW10      30.06R
O`NEILL        FAIR      66  65  94 E6        30.01F
ORD            CLOUDY    67  63  87 E8        29.96F
THEDFORD       FAIR      65  63  93 NW3       30.08R
$$

NEZ041-046>049-061>064-073>077-083>087-211000-
SOUTH CENTRAL NEBRASKA

CITY           SKY/WX    TMP DP  RH WIND       PRES   REMARKS
GRAND ISLAND   LGT RAIN  68  65  90 N13       29.94S
AURORA         RAIN      68  67  98 NE14      29.92S
HASTINGS       CLOUDY    71  67  87 NE14G24   29.92F
HEBRON         MOCLDY    73  67  81 E9G16     29.88S
HOLDREGE       CLOUDY    69  67  93 N6G12     29.98R
KEARNEY        CLOUDY    68  65  90 NE12      29.96R
YORK           TSTM      68  68 100 NE23G32   29.91F VSB 3/4
$$

NEZ011>018-030>034-042>045-211000-
NORTHEAST NEBRASKA

CITY           SKY/WX    TMP DP  RH WIND       PRES   REMARKS
NORFOLK        CLOUDY    67  62  84 E13G21    29.96F
ALBION         CLOUDY    68  63  85 E12G18    29.98S
BLAIR          MOCLDY    69  65  86 NE12      29.93F
COLUMBUS       CLOUDY    68  63  84 NE14      29.95F
FREMONT        CLOUDY    70  62  76 NE8       29.95F
TEKAMAH        CLOUDY    68  62  81 NE10      29.95F
WAYNE          CLOUDY    65  62  90 E10       29.98F
$$

NEZ050>053-065>068-078-088>093-211000-
SOUTHEAST NEBRASKA

CITY           SKY/WX    TMP DP  RH WIND       PRES   REMARKS
LINCOLN        TSTM      71  68  90 VRB3      29.96R VSB 1
OMAHA EPPLEY   CLOUDY    71  65  81 NE6       29.93F THUNDER
BEATRICE       CLOUDY    77  73  86 E17G24    29.89S
FALLS CITY     HVY RAIN  72  70  93 E13       29.96R FOG
NEBRASKA CITY  TSTM      68  67  98 S13       29.93F
PLATTSMOUTH    CLOUDY    71  70  98 E9        29.93R
$$

NEZ044-045-051>053-067-211000-
OMAHA AREA

CITY           SKY/WX    TMP DP  RH WIND       PRES   REMARKS
OMAHA EPPLEY   CLOUDY    71  65  81 NE6       29.93F THUNDER
BLAIR          MOCLDY    69  65  86 NE12      29.93F
FREMONT        CLOUDY    70  62  76 NE8       29.95F
MILLARD        CLOUDY    72  69  89 E3        29.93S
OFFUTT AFB     TSTM      72  70  94 E6        29.97S
PLATTSMOUTH    CLOUDY    71  70  98 E9        29.93R
WAHOO          LGT RAIN  69  67  95 NW3       29.93F
$$



 

View Past Reports for Omaha, NE.

Products Courtesy of NOAA-NWS
NWS Information Parsing Script by Ken True at Saratoga Weather - Script by SE Lincoln Weather.